Regional Weather Roundup
Issued by NWS

Home | Current Version | Previous Version | Graphics & Text | Print | Product List | Glossary On
Versions: 1 2 3 4 5 6 7 8 9 10 11 12 13 14 15 16 17 18 19 20 21 22 23 24 25 26 27 28 29 30 31 32 33 34 35 36 37 38 39 40 41 42 43 44 45 46 47 48 49 50
000
ASUS43 KFSD 221702
RWRSD

WEATHER ROUNDUP FOR SOUTH DAKOTA
NATIONAL WEATHER SERVICE SIOUX FALLS SD
1200 PM CDT THU JUN 22 2017

NOTE: "FAIR" INDICATES FEW OR NO CLOUDS BELOW 12,000 FEET WITH NO
SIGNIFICANT WEATHER AND/OR OBSTRUCTIONS TO VISIBILITY.


SDZ001>005-009-010-012>017-221800-
NORTHWEST AND NORTH CENTRAL SOUTH DAKOTA

CITY           SKY/WX    TMP DP  RH WIND       PRES   REMARKS
BUFFALO          N/A     72  37  28 NW22      29.88S
FAITH            N/A     69  45  41 N8        29.90F
MOBRIDGE       SUNNY     76  40  27 N12       29.81F
$$

SDZ012>016-024>037-041>051-057-063-072>074-221800-
SOUTHWEST AND SOUTH CENTRAL SOUTH DAKOTA

CITY           SKY/WX    TMP DP  RH WIND       PRES   REMARKS
RAPID CTY ARPT CLOUDY    65  45  48 N20G26    29.96S
PIERRE         SUNNY     71  49  45 N17       29.83R
CUSTER         CLOUDY    65  43  44 N8        30.00S
ELLSWORTH AFB  CLOUDY    65  44  46 N15       29.96S
PHILIP         CLOUDY    68  51  54 N14       29.89R
PINE RIDGE     CLOUDY    70  55  59 NE16      29.93R
SPEARFISH      FAIR      59  45  58 VRB5      30.01S
WINNER         CLOUDY    68  58  70 NW12      29.83R
$$

SDZ004>011-016>023-039-040-221800-
NORTHEAST SOUTH DAKOTA

CITY           SKY/WX    TMP DP  RH WIND       PRES   REMARKS
ABERDEEN       SUNNY     75  46  35 N13       29.79R
WATERTOWN      LGT RAIN  58  54  86 NE5       29.77S
BROOKINGS      CLOUDY    66  62  87 N7        29.78R
SISSETON         N/A     73  51  46 N12       29.76S
$$

SDZ017-020-022-023-036>040-048>070-221800-
SOUTHEAST SOUTH DAKOTA

CITY           SKY/WX    TMP DP  RH WIND       PRES   REMARKS
SIOUX FALLS    PTSUNNY   74  64  71 E9        29.73R
HURON          CLOUDY    62  59  90 N9        29.81R
CHAMBERLAIN    CLOUDY    66  56  70 N12       29.83R
MITCHELL       CLOUDY    67  61  81 NW9       29.79R
YANKTON        CLOUDY    77  63  61 NE15      29.72R
$$

ABBREVIATIONS USED IN REMARKS
   TC - TEMPERATURE IN CELSIUS
  WCI - WIND CHILL INDEX
   HX - HEAT INDEX
  VSB - VISIBILITY





USA.gov is the U.S. government's official web portal to all federal, state and local government web resources and services.